Home   Weather   Baghlan   Past weeks

Flag for Afghanistan Past Weather in Baghlan, Afghanistan — Yesterday and Last 2 Weeks

Now
70 °F

Passing clouds.


Feels Like: 70 °F
Forecast: 55 / 80 °F
Wind: No wind

Location: Termez Airport

Current Time: Sep 30, 2016 at 9:32:39 PM

Latest Report: Sep 30, 2016 at 8:30 PM


Visibility: 3 mi

Pressure: 29.95 "Hg (28.14 "Hg at 536m altitude)

Humidity: 57%

Dew Point: 54 °F

Location of BaghlanLocation

Past Weather in Baghlan — Graph

°F

Baghlan Temperature Yesterday

Maximum temperature yesterday: 95 °F (at 2:00 PM)
Minimum temperature yesterday: 61 °F (at 4:00 AM)
Average temperature yesterday: 77 °F

High & Low Weather Summary for the Past Weeks

 TemperatureHumidityPressure
High102 °F (Sep 22, 3:30 PM)77% (Sep 18, 6:00 AM)30.04 "Hg (Sep 18, 6:00 AM)
Low57 °F (Sep 24, 6:00 AM)9% (Sep 16, 12:30 PM)29.65 "Hg (Sep 29, 1:30 PM)
Average78 °F38%29.82 "Hg
* Reported Sep 15 7:30 PM — Sep 30 8:00 PM, Baghlan, Weather by CustomWeather, © 2016

Note: Actual official high and low records may vary slightly from our data, if they occured in-between our weather recording intervals... More about our weather records

Advertising

Baghlan Weather History for the Previous 24 Hours

Scroll right to see more
 ConditionsComfort  
Time TempWeatherWind HumidityBarometerVisibility
8:00 PM
Fri, Sep 30
70 °FPassing clouds.No wind57%29.95 "Hg3 mi
7:30 PM70 °FPassing clouds.No wind53%29.95 "Hg3 mi
7:00 PM70 °FPassing clouds.No wind57%29.92 "Hg3 mi
6:30 PM70 °FPassing clouds.No wind57%29.92 "Hg3 mi
6:00 PM72 °FPassing clouds.No wind50%29.92 "Hg2 mi
5:30 PM72 °FScattered clouds.No wind50%29.92 "Hg3 mi
5:00 PM73 °FScattered clouds.No wind44%29.92 "Hg3 mi
4:30 PM73 °FScattered clouds.No wind44%29.92 "Hg3 mi
4:00 PM73 °FScattered clouds.3 mph47%29.92 "Hg3 mi
3:30 PM73 °FScattered clouds.No wind47%29.92 "Hg3 mi
3:00 PM73 °FScattered clouds.3 mph47%29.95 "Hg3 mi
2:30 PM73 °FScattered clouds.5 mph47%29.95 "Hg3 mi
2:00 PM73 °FScattered clouds.7 mph44%29.95 "Hg3 mi
1:30 PM73 °FScattered clouds.7 mph47%29.98 "Hg4 mi
1:00 PM73 °FScattered clouds.6 mph47%29.98 "Hg5 mi
12:30 PM73 °FScattered clouds.10 mph44%29.98 "HgN/A
12:00 PM73 °FScattered clouds.14 mph38%30.01 "HgN/A
11:30 AM73 °FScattered clouds.17 mph41%30.01 "HgN/A
11:00 AM72 °FScattered clouds.17 mph44%30.01 "HgN/A
10:30 AM72 °FScattered clouds.17 mph44%30.01 "Hg5 mi
10:00 AM70 °FScattered clouds.18 mph50%30.04 "Hg5 mi
9:30 AM68 °FScattered clouds.22 mph53%30.04 "Hg4 mi
9:00 AM68 °FScattered clouds.22 mph53%30.04 "Hg4 mi
8:30 AM66 °FScattered clouds.22 mph56%30.04 "Hg4 mi
8:00 AM66 °FScattered clouds.21 mph60%30.01 "Hg4 mi
7:30 AM64 °FScattered clouds.22 mph60%30.01 "Hg5 mi
7:00 AM64 °FScattered clouds.16 mph60%30.01 "Hg5 mi
6:30 AM64 °FDuststorm.16 mph60%30.01 "Hg3 mi
6:00 AM64 °FDuststorm.18 mph60%29.98 "Hg3 mi
5:30 AM64 °FDuststorm.20 mph60%29.98 "Hg3 mi
5:00 AM64 °FDuststorm.20 mph60%29.98 "Hg2 mi
4:30 AM64 °FDuststorm.23 mph60%29.95 "Hg2 mi
4:00 AM66 °FDuststorm.23 mph56%29.95 "Hg2 mi
3:30 AM66 °FDuststorm.26 mph56%29.92 "Hg2 mi
3:00 AM66 °FDuststorm.26 mph56%29.92 "Hg2 mi
2:30 AM68 °FDuststorm.25 mph49%29.92 "Hg1 mi
2:00 AM68 °FDuststorm.28 mph49%29.92 "Hg1 mi
1:30 AM68 °FDuststorm.25 mph49%29.92 "Hg1 mi
1:00 AM70 °FDuststorm.28 mph46%29.89 "Hg1 mi
12:30 AM70 °FDuststorm.29 mph43%29.89 "Hg1 mi
12:00 AM72 °FDuststorm.33 mph38%29.89 "Hg1 mi
11:30 PM
Thu, Sep 29
73 °FDuststorm.28 mph36%29.89 "Hg1 mi
11:00 PM73 °FDuststorm.26 mph36%29.86 "Hg1 mi
10:30 PM75 °FDuststorm.25 mph34%29.86 "Hg1 mi
10:00 PM77 °FDense fog.26 mph30%29.83 "Hg0 mi
9:30 PM81 °FDuststorm.23 mph24%29.80 "Hg0 mi
9:00 PM79 °FHaze.12 mph32%29.77 "Hg2 mi
Weather by CustomWeather, © 2016

See weather overviewHow to use our weather pages